User: anonymous   Login
Location: Caltech
(34.1382°N, 118.1253°W)
Time: 21:02:06
(UTC-07:00)
Language:

Gurwin Techsat 1B - Orbit

View from above orbital plane
View from above orbital plane
View from above satellite
View from above satellite

Ground track
Ground track

The orbit data is extracted from the following two-line orbital elements,

1 25397U 98043D   16118.88716817 +.00000006 +00000-0 +21418-4 0  9999
2 25397 098.5631 065.1459 0002302 108.6456 251.4973 14.23591544924483
Epoch (UTC): 27 April 2016 21:17:31
Eccentricity: 0.0002302
inclination: 98.5631°
perigee height: 811 km
apogee height: 815 km
right ascension of ascending node: 65.1459°
argument of perigee: 108.6456°
revolutions per day: 14.23591544
mean anomaly at epoch: 251.4973°
orbit number at epoch: 92448

The dashed part of the orbit path shows where the satellite is in the earth's shadow,  

DLR